Hourly Weather Ruda

Today, 23 July, Friday

Time Temperature Precipitation Wind Pressure Humidity
00:00 +18°C° 0 mm 0 mps 744 mmHg 68%
01:00 +18°C° 0 mm 0 mps 744 mmHg 69%
02:00 +18°C° 0 mm 0 mps 743 mmHg 69%
03:00 +17°C° 0 mm 0 mps 743 mmHg 69%
04:00 +17°C° 0 mm 0 mps 743 mmHg 69%
05:00 +20°C° 0 mm 1 mps 743 mmHg 70%
06:00 +20°C° 0 mm 1 mps 743 mmHg 70%
07:00 +20°C° 0 mm 1 mps 743 mmHg 71%
08:00 +21°C° 0 mm 1 mps 743 mmHg 68%
09:00 +19°C° 0 mm 0 mps 743 mmHg 65%
10:00 +20°C° 0 mm 0 mps 743 mmHg 61%
11:00 +23°C° 0 mm 1 mps 743 mmHg 57%
12:00 +24°C° 0 mm 1 mps 743 mmHg 52%
13:00 +25°C° 0 mm 1 mps 743 mmHg 47%
14:00 +25°C° 0 mm 1 mps 742 mmHg 48%
15:00 +25°C° 0 mm 1 mps 742 mmHg 50%
16:00 +25°C° 0 mm 1 mps 742 mmHg 52%
17:00 +24°C° 0 mm 1 mps 742 mmHg 54%
18:00 +23°C° 0 mm 1 mps 742 mmHg 56%
19:00 +23°C° 0 mm 1 mps 742 mmHg 58%
20:00 +22°C° 0 mm 1 mps 742 mmHg 58%
21:00 +22°C° 0 mm 1 mps 742 mmHg 58%
22:00 +22°C° 0 mm 1 mps 742 mmHg 58%
23:00 +21°C° 0 mm 1 mps 742 mmHg 60%

Tomorrow, 24 July, Saturday

Time Temperature Precipitation Wind Pressure Humidity
00:00 +21°C° 0 mm 1 mps 742 mmHg 61%
01:00 +21°C° 0 mm 1 mps 742 mmHg 63%
02:00 +20°C° 0 mm 1 mps 742 mmHg 64%
03:00 +20°C° 0 mm 1 mps 741 mmHg 65%
04:00 +20°C° 0 mm 1 mps 741 mmHg 66%
05:00 +21°C° 0 mm 1 mps 741 mmHg 66%
06:00 +21°C° 0 mm 1 mps 741 mmHg 66%
07:00 +22°C° 0 mm 1 mps 742 mmHg 66%
08:00 +23°C° 0 mm 2 mps 742 mmHg 60%
09:00 +24°C° 0 mm 2 mps 742 mmHg 54%
10:00 +25°C° 0 mm 2 mps 742 mmHg 48%
11:00 +26°C° 0 mm 2 mps 741 mmHg 44%
12:00 +27°C° 0 mm 2 mps 741 mmHg 41%
13:00 +28°C° 0 mm 2 mps 741 mmHg 38%
14:00 +28°C° 0 mm 2 mps 741 mmHg 39%
15:00 +27°C° 0 mm 3 mps 741 mmHg 41%
16:00 +27°C° 0 mm 3 mps 741 mmHg 42%
17:00 +26°C° 0 mm 3 mps 741 mmHg 48%
18:00 +25°C° 0 mm 3 mps 740 mmHg 54%
19:00 +22°C° 0 mm 3 mps 740 mmHg 60%
20:00 +22°C° 0 mm 3 mps 740 mmHg 63%
21:00 +21°C° 0 mm 3 mps 740 mmHg 67%
22:00 +20°C° 0 mm 3 mps 740 mmHg 70%
23:00 +20°C° 0 mm 3 mps 740 mmHg 71%

Day after tomorrow, 25 July, Sunday

Time Temperature Precipitation Wind Pressure Humidity
00:00 +19°C° 0 mm 3 mps 740 mmHg 73%
01:00 +19°C° 0 mm 3 mps 740 mmHg 74%
02:00 +20°C° 0 mm 3 mps 740 mmHg 72%
03:00 +20°C° 0 mm 3 mps 740 mmHg 70%
04:00 +20°C° 0 mm 3 mps 740 mmHg 69%
05:00 +21°C° 0 mm 3 mps 740 mmHg 68%
06:00 +21°C° 0 mm 3 mps 740 mmHg 66%
07:00 +22°C° 0 mm 3 mps 740 mmHg 65%
08:00 +24°C° 0 mm 3 mps 740 mmHg 61%
09:00 +25°C° 0 mm 3 mps 740 mmHg 57%
10:00 +26°C° 0 mm 3 mps 740 mmHg 54%
11:00 +27°C° 0 mm 3 mps 740 mmHg 52%
12:00 +27°C° 0 mm 3 mps 740 mmHg 50%
13:00 +27°C° 0 mm 3 mps 740 mmHg 49%
14:00 +25°C° 0.4 mm 3 mps 740 mmHg 60%
15:00 +22°C° 0.4 mm 3 mps 740 mmHg 72%
16:00 +20°C° 0.4 mm 3 mps 740 mmHg 84%
17:00 +20°C° 0.1 mm 3 mps 740 mmHg 84%
18:00 +20°C° 0.1 mm 4 mps 739 mmHg 84%
19:00 +19°C° 0.1 mm 4 mps 739 mmHg 84%
20:00 +19°C° 0 mm 4 mps 739 mmHg 86%
21:00 +19°C° 0 mm 3 mps 738 mmHg 88%
22:00 +18°C° 0 mm 2 mps 738 mmHg 90%
23:00 +18°C° 0 mm 2 mps 738 mmHg 91%

26 July, Monday

Time Temperature Precipitation Wind Pressure Humidity
00:00 +17°C° 0 mm 2 mps 738 mmHg 92%
01:00 +18°C° 0 mm 1 mps 738 mmHg 93%
02:00 +17°C° 0 mm 2 mps 738 mmHg 95%
03:00 +16°C° 0 mm 2 mps 738 mmHg 96%
04:00 +16°C° 0 mm 3 mps 738 mmHg 97%
05:00 +17°C° 0 mm 3 mps 738 mmHg 93%
06:00 +18°C° 0 mm 3 mps 739 mmHg 89%
07:00 +19°C° 0 mm 3 mps 739 mmHg 86%
08:00 +21°C° 0 mm 3 mps 739 mmHg 77%
09:00 +24°C° 0 mm 3 mps 739 mmHg 69%
10:00 +26°C° 0 mm 3 mps 739 mmHg 61%
11:00 +27°C° 0 mm 3 mps 739 mmHg 56%
12:00 +28°C° 0 mm 3 mps 739 mmHg 51%
13:00 +30°C° 0 mm 3 mps 739 mmHg 45%
14:00 +30°C° 0 mm 2 mps 739 mmHg 44%
15:00 +30°C° 0 mm 2 mps 739 mmHg 43%
16:00 +30°C° 0 mm 1 mps 739 mmHg 43%
17:00 +29°C° 0 mm 1 mps 739 mmHg 48%
18:00 +28°C° 0 mm 1 mps 739 mmHg 54%
19:00 +26°C° 0 mm 1 mps 739 mmHg 59%
20:00 +25°C° 0 mm 1 mps 739 mmHg 63%
21:00 +24°C° 0 mm 1 mps 739 mmHg 66%
22:00 +23°C° 0 mm 1 mps 739 mmHg 70%
23:00 +22°C° 0.4 mm 1 mps 739 mmHg 74%

27 July, Tuesday

Time Temperature Precipitation Wind Pressure Humidity
00:00 +21°C° 0.4 mm 1 mps 739 mmHg 79%
01:00 +21°C° 0.4 mm 1 mps 739 mmHg 84%
02:00 +19°C° 1.4 mm 2 mps 739 mmHg 88%
03:00 +19°C° 1.4 mm 2 mps 739 mmHg 91%
04:00 +19°C° 1.4 mm 3 mps 739 mmHg 95%
05:00 +19°C° 1 mm 2 mps 740 mmHg 94%
06:00 +19°C° 1 mm 2 mps 740 mmHg 93%
07:00 +20°C° 1 mm 2 mps 740 mmHg 92%
08:00 +23°C° 0 mm 2 mps 741 mmHg 81%
09:00 +24°C° 0 mm 2 mps 741 mmHg 70%
10:00 +26°C° 0 mm 3 mps 741 mmHg 59%
11:00 +27°C° 0 mm 3 mps 741 mmHg 54%
12:00 +29°C° 0 mm 3 mps 741 mmHg 50%
13:00 +30°C° 0 mm 2 mps 741 mmHg 46%
14:00 +30°C° 0 mm 2 mps 741 mmHg 45%
15:00 +30°C° 0 mm 2 mps 741 mmHg 44%
16:00 +30°C° 0 mm 2 mps 741 mmHg 43%
17:00 +29°C° 0 mm 2 mps 741 mmHg 48%
18:00 +28°C° 0 mm 1 mps 740 mmHg 53%
19:00 +26°C° 0 mm 1 mps 740 mmHg 59%
20:00 +26°C° 0.1 mm 1 mps 740 mmHg 61%
21:00 +25°C° 0.1 mm 1 mps 740 mmHg 64%
22:00 +24°C° 0.1 mm 1 mps 740 mmHg 67%
23:00 +23°C° 0.2 mm 1 mps 740 mmHg 71%

28 July, Wednesday

Time Temperature Precipitation Wind Pressure Humidity
00:00 +22°C° 0.2 mm 1 mps 740 mmHg 75%
01:00 +22°C° 0.2 mm 1 mps 740 mmHg 79%
02:00 +20°C° 0.7 mm 2 mps 740 mmHg 82%
03:00 +20°C° 0.7 mm 2 mps 740 mmHg 86%
04:00 +20°C° 0.7 mm 3 mps 740 mmHg 89%
05:00 +19°C° 0.6 mm 4 mps 741 mmHg 90%
06:00 +19°C° 0.6 mm 5 mps 741 mmHg 91%
07:00 +17°C° 0.6 mm 5 mps 741 mmHg 92%
08:00 +17°C° 0.4 mm 5 mps 742 mmHg 90%
09:00 +18°C° 0.4 mm 4 mps 742 mmHg 89%
10:00 +17°C° 0.4 mm 3 mps 742 mmHg 87%
11:00 +19°C° 0.2 mm 2 mps 742 mmHg 79%
12:00 +21°C° 0.2 mm 2 mps 742 mmHg 70%
13:00 +24°C° 0.2 mm 2 mps 742 mmHg 61%
14:00 +25°C° 0 mm 2 mps 742 mmHg 57%
15:00 +26°C° 0 mm 2 mps 742 mmHg 53%
16:00 +26°C° 0 mm 2 mps 742 mmHg 49%
17:00 +25°C° 0 mm 2 mps 742 mmHg 55%
18:00 +24°C° 0 mm 2 mps 742 mmHg 61%
19:00 +23°C° 0 mm 2 mps 742 mmHg 66%
20:00 +21°C° 0 mm 2 mps 742 mmHg 70%
21:00 +21°C° 0 mm 2 mps 742 mmHg 73%
22:00 +20°C° 0 mm 2 mps 742 mmHg 76%
23:00 +19°C° 0 mm 3 mps 742 mmHg 78%
Show more

We Need Your Consent

Meteoprog and our Service Providers may store and access personal data such as cookies, device identifiers or other similar technologies on your device and process such data to personalise content and ads, as well as provide social media features and to analyse the traffic.

  • Store and/or access information on your device

    Cookies, device identifiers or other information can be stored or accessed on your device for the purposes indicated above.

  • Personalised ads and content, ad and content measurement, audience insights, and products development

    Ads and content can be personalised based on a profile. More data can be added to better personalise ads and content. Ad and content performance can be measured. Insights about the audience who saw the ads and content can be derived. Such data can be used to develop or improve user’s experience, systems and software.

By clicking ‘I Agree’ you will allow the use of indicated cookies, device identifiers, web beacons or other similar technologies. Your settings can be changed in the browser on your device.

For certain purposes, legitimate interests may be relied on, rather than consent. You can read more about this in our Privacy and Cookie Policy.